Вернуться в каталог

COSMOS 1162

АктивенВоенныеLEO
NORAD 11697·PAYLOAD·🇷🇺 Russia

Запущен Feb 11, 1980 с Plesetsk Cosmodrome

Loading…

Ближайшие Пролёты (ближайшие 24 часа)

TLE

СвежийSource: Space-Track

Эпоха: Sep 14, 2026, 10:56 UTC

1 11697U 80012G   26257.45589163  .00000008  00000-0  17022-3 0  9991
2 11697  74.0214 147.1806 0030282 239.5984 231.8022 12.42743615113587

Отслеживайте COSMOS 1162 в реальном времени с AllMySat

Download on the App Store